Volver al catálogo

BREEZE-M R/B

ActivoHEO
NORAD 36587·ROCKET BODY·🇷🇺 Russia

Lanzado Dec 29, 2009 desde Baikonur Cosmodrome

Loading…

Próximos Pases (próximas 24 horas)

TLE

ActualizadoSource: Space-Track

Época: Sep 14, 2026, 03:50 UTC

1 36587U 09075B   26257.16002096 -.00000190  00000-0  00000-0 0  9997
2 36587  21.4982 304.2037 5764629 127.9030 330.7622  1.99403210118885

Sigue BREEZE-M R/B en tiempo real con AllMySat

Download on the App Store